Tracking 19164 objects as of 21-May-2018
HD Live streaming from Space Station
objects crossing your sky now

TURKSAT 2A

Track TURKSAT 2A now!
TURKSAT 2A is classified as:


NORAD ID: 26666
Int'l Code: 2001-002A
Perigee: 36,332.4 km
Apogee: 36,432.7 km
Inclination: 1.9 °
Period: 1,466.3 minutes
Semi major axis: 42753 km
RCS: 3.9 m2 (large)
Launch date: January 10, 2001
Source: Turkey (TURK)
Launch site: FRENCH GUIANA (FRGUI)

32 Ku-band transponders; direct-to-home voice, video, and data transmissions to countries between central Europe and the Indian subcontinent.
aabbcc
Your satellite tracking list
Your tracking list is empty




NASA's NSSDC Master Catalog

Two Line Element Set (TLE):
1 26666U 01002A   18140.75033764 -.00000100 +00000-0 +00000-0 0  9990
2 26666 001.8892 085.0655 0011732 250.8521 108.5787 00.98207605063329
Source of the keplerian elements: AFSPC